TIMESTAMP,CO2_1_1_1,H2O_1_1_1,TAU_1_1_1,TAU_SSITC_TEST_1_1_1,H_1_1_1,H_SSITC_TEST_1_1_1,LE_1_1_1,LE_SSITC_TEST_1_1_1,FC_1_1_1,FC_SSITC_TEST_1_1_1,WD_0_0_1,WS_0_0_1,WS_MAX_0_0_1,U_SIGMA_0_0_1,V_SIGMA_0_0_1,W_SIGMA_0_0_1,USTAR_0_0_1,MO_LENGTH_0_0_1,ZL_0_0_1,FETCH_MAX_0_0_1,FETCH_70_0_0_1,FETCH_80_0_0_1,FETCH_90_0_0_1,PA_0_0_1,RH_0_0_1,TA_0_0_1,VPD_0_0_1,T_SONIC_0_0_1,T_SONIC_SIGMA_0_0_1
[yyyymmddHHMMSS],[mmolCO2 mol-1],[mmolH2O mol-1],[kg m-1 s-2],[#],[W m-2],[#],[W m-2],[#],[umolCO2 m-2 s-1],[#],[Decimal degrees],[m s-1],[m s-1],[m s-1],[m s-1],[m s-1],[m s-1],[m],[#],[m],[m],[m],[m],[kPa],[%],[deg C],[hPa],[deg C],[deg C]
20211111003000,421.65141683889391,5.1624815860180391,1.2575980588730937,0,-18.490089869584683,0,31.655474128861808,0,2.6966995040822348,0,84.086825878939749,3.7441546140135529,11.342102813952776,1.9482946910551033,1.4255215182394314,1.1466373762935791,1.0372546699973064,5023.8930566059307,3.7819276377742254E-003,115.56394091591771,211.28774122285489,252.85746260167551,316.54753801924869,93.782370086140730,52.582068965517244,5.8210344827586482,4.3671803701410434,5.2488262768479217,9.3653920672232965E-002
20211111010000,421.86460723639931,5.6042123475908623,1.0237984599071521,0,-1.8894613268912868,1,-2.2885157709554900,2,1.3801165957232704,0,89.251098649864048,4.4453475075511841,12.629822346318756,2.0045230826715810,1.5353249741354107,1.1405854587532291,0.93598330998829160,36113.538426768231,5.2611848153646273E-004,106.89739431292780,195.44252997931790,233.89479166658145,292.80852420090224,93.737117058376754,57.536999999999999,5.6993333333333567,3.8779849041216381,5.1558158959282991,7.0169811517954192E-002
20211111013000,421.89814228216460,6.0508935367891610,1.1880676862290460,0,0.87426572886007969,2,-8.4715544242404661,1,1.4244382792658159,0,93.278967506684836,4.7434777290114871,12.625748383630535,2.0644209785705931,1.6502488544970444,1.2177171202075945,1.0084566051557660,-97583.019267052048,-1.9470600666703458E-004,107.68210635413355,196.87723386171120,235.61176578532178,294.95797205400436,93.680177308113542,62.601333333333336,5.5799999999999841,3.3873200351502941,5.0479073070950449,7.4213741812010958E-002
20211111020000,421.85679549162450,6.3624725522627879,1.4003407546685183,0,-3.3670041631146277,1,9.7294352888216906,1,1.9359451314476788,0,95.061405392390043,4.2025458397485336,12.163887842719701,2.0454540333245332,1.5985980642366131,1.2338707115437473,1.0948684318805819,32420.128009606906,5.8605567486870555E-004,113.79645226611585,208.05620825942486,248.99014298948492,311.70611277762572,93.651519396918388,66.296999999999997,5.4726666666666688,3.0299252376398682,4.9935319540235810,6.4235554559380861E-002
20211111023000,421.38188430480278,6.3227805302502125,1.4224960019058104,0,2.3026392295663434,2,19.537016779082141,0,1.3452222569190577,1,93.647049451308504,4.7806380320444131,12.572716346219940,2.2031528149697621,1.6478851139475306,1.2716765916073829,1.1037712917620146,-48551.105369381505,-3.9134021471697012E-004,111.80386921525321,204.41313094067860,244.63030989387582,306.24811909853884,93.596611029513895,65.936333333333337,5.4526666666666870,3.0580973901731694,4.9408381169637323,7.5788255258942172E-002
20211111030000,421.38154497418270,6.4224312189053263,1.4594685257199012,0,8.1602230385362429,0,14.870766142700122,1,1.8919954278814204,0,94.865001368495413,4.9896151273711320,12.564596792252734,2.2101189237684062,1.7443517230685963,1.3289029150819871,1.1181415256341465,-14238.481211098278,-1.3344119866654264E-003,109.05804743330971,199.39289298834476,238.62236725159602,298.72688783881358,93.560682536241330,67.223333333333329,5.3940000000000055,2.9305832525022040,4.8884171871609396,7.0770665876595404E-002
20211111033000,421.58776386402860,6.4248072283474782,1.4015287248230013,0,10.901333914154218,0,30.419043714573306,1,2.1687694332361973,1,95.483387882250199,4.8501658306220756,12.985305870180186,2.3100251191377614,1.6310203877517635,1.2394615681161207,1.0956504273568108,-10026.938617226615,-1.8948954137763810E-003,113.45040684192155,207.42352685847024,248.23298494162677,310.75824074934980,93.547696481097546,67.591999999999999,5.3186666666666724,2.8824820516649257,4.8152617731617511,7.2454573588609961E-002
20211111040000,421.29786869591607,6.2796576064938963,1.7035584911466326,0,11.136441609095256,0,17.890973811466040,0,1.6790574152716642,0,100.29510820300003,4.8459889411639194,16.598573520205935,2.4866690166227428,1.8095724088582237,1.3588917059782855,1.2082856080649524,-13159.085560286332,-1.4438693260982623E-003,113.98368770627344,208.39853435971375,249.39981990022477,312.21897965584128,93.499906538459527,65.907333333333327,5.3456666666666592,3.0380215701426598,4.8265256053044823,7.5014661264344071E-002
20211111043000,421.39034073498840,6.4835807029587551,1.5943704065576139,0,-69.417944521644642,0,63.545265999357930,1,2.9220392337643055,0,99.181894460939702,4.1878009074123890,12.437613026318139,2.2915079385712467,1.7118793685833296,1.2819228600844839,1.1685231519565640,1908.8361370893535,9.9537092948018720E-003,116.27202687219956,212.58234818337098,254.40677648618191,318.48709515437707,93.455578112196179,69.662666666666667,5.0020000000000095,2.6394530237636444,4.5894951951768803,0.21109532725685173
20211111050000,421.50876210143559,6.8692224821365304,1.3388565786004796,0,-153.24227926584419,1,117.45723448890139,1,3.1168803453455349,1,97.859183777155948,5.0266117370950516,14.751904554463829,2.4234725110766320,2.0661365202088784,1.4290429065211903,1.0704556689666687,664.50708751033926,2.8592622045892586E-002,99.374197417436733,181.68772665377503,217.43380511169445,272.20132236590723,93.400965741753495,75.766333333333336,4.6183333333333394,2.0526659972705863,4.2379111828274745,0.38884973183070071
20211111053000,421.84270141605890,7.3703234912370261,1.4628257592394471,0,-68.768212722665368,0,31.464144500525411,0,2.5051798418313944,0,86.970199330765467,5.1936273374827273,14.636698226903693,2.3711060954847762,1.8573776547682601,1.3949530139328292,1.1177187227762075,1684.8400653132426,1.1277034770933912E-002,104.87530981764425,191.74551461116712,229.47040850180517,287.26972149500790,93.324587336588536,86.366666666666674,3.7443333333333157,1.0860629601142933,3.5333467220729631,0.19321726130031475
20211111060000,422.62207440568039,7.6665544307479934,1.5448815024461302,0,-44.874543716786235,0,6.8771300243457070,1,1.5287299131383596,0,83.514087225691014,4.5087217018238652,13.614624683052780,2.2160492342691183,1.8091231620734942,1.3699247434776798,1.1489728610903884,2802.5080342999822,6.7796415808477313E-003,108.77907172980829,198.88283642760700,238.01195981865627,297.96273016635399,93.218848582682284,90.909999999999997,3.5600000000000023,0.71478044487688641,3.3092628512912370,0.14053333852699282
20211111063000,423.03447398402358,7.8499340403454783,1.6199414840499882,0,-64.038705772907221,1,12.255500978453039,1,2.5715574239778456,0,85.288463262738674,4.6563340092514549,13.361985818770609,2.1656444375008794,1.6967527878451740,1.3956092946460876,1.1772246883992026,2110.8286595288619,9.0012042968190559E-003,109.27763978971308,199.79437785124009,239.10284209181697,299.32838532355152,93.124626575570062,92.883333333333340,3.5763333333333094,0.56025515736961662,3.3476501252821436,0.22014195420697788
20211111070000,422.64563976159064,7.7411273523004507,2.1214223069134226,0,-42.857665941126115,0,32.110321914481190,1,3.4419761384366616,0,83.483363491749657,4.8443008519816413,14.948861031111289,2.5843789512910034,1.9170513641217199,1.4748253431305542,1.3475481850965176,4727.4771972953558,4.0190569318600032E-003,116.49247412215188,212.98539606432809,254.88912185982241,319.09093432499077,93.039407768012168,92.079999999999998,3.4886666666666883,0.61965149207536341,3.7713519507514093,0.34593004698193253
20211111073000,422.57494903015839,7.6368576516033118,1.8621001221046820,0,11.389404689872169,0,17.812080552067027,1,2.4556454078512973,0,80.041077486567588,5.1844133879629135,15.763024272291066,2.4522372643375587,1.8656456178068295,1.4614900228631484,1.2624938810345605,-14617.253992777589,-1.2998337450651082E-003,111.37857096176262,203.63555009137690,243.69974421418166,305.08316129250238,92.938461929036450,92.640000000000001,3.1956666666666820,0.56403483074116589,3.4794522681060016,0.32859311978257633
20211111080000,423.16901578903321,7.7639925993479828,3.6354966887409224,0,-57.359549033196501,2,-32.486579161781542,1,-0.34756012548231535,2,85.208386485802919,6.2343385824650204,27.610070414095599,3.4465643609941603,2.4468311783794285,1.8123070347029984,1.7648861251926107,7923.4411967801998,2.3979480036680164E-003,122.58655204127074,224.12731410694261,268.22315207125706,335.78355787612162,92.843054106412183,94.310000000000002,3.1619999999999777,0.43501630164885002,4.9596452901554358,2.4459128230478240
20211111083000,423.80125870676062,7.8931726103632878,2.7247488726435032,0,-128.51499429650812,0,-5.6402504657768384,0,1.6766572465780352,0,88.370707687051251,6.1302028143902705,20.149084242866337,3.0703224497011750,2.3630823736106223,1.7253347708129512,1.5290615606292628,2297.7903674121567,8.2688134955489403E-003,113.68317034426858,207.84909277687211,248.74227865490164,311.39581604337940,92.726378341362846,95.386666666666670,3.2169999999999845,0.35407767113400612,5.1849147438473437,0.69029136954200532
20211111090000,424.26274126997282,8.0270069933733375,2.5423450906328444,0,-72.857379398189849,0,-6.2287584788582073,1,1.5016835394426558,0,88.528589110754424,6.0508361155357431,18.347650699722799,2.8123764199081687,2.0645697705249031,1.6851385763804652,1.4777418721155477,3656.9172863229182,5.1956329641529211E-003,112.72630371580793,206.09963540308738,246.64862499612917,308.77481010457728,92.664617021701389,96.383333333333326,3.2983333333333462,0.27918404630327587,5.4302322303631172,0.54216502637719277
20211111093000,425.07478118660765,8.1132165300807362,2.3286429427752284,0,-15.080458244175203,2,-5.4293380072054731,0,-0.79852519949902090,2,89.512504879796893,5.8081610940222630,17.757057294945948,2.7294512974422709,2.2426918727806626,1.6140452114431567,1.4147898085868977,15500.952082727814,1.2257311614536927E-003,112.68753564269261,206.02875500098980,246.56379925792567,308.66861834613479,92.633923990605027,96.686666666666667,3.4003333333333217,0.25761915364001087,5.0382941458460095,0.88721062012239027
20211111100000,436.71915180697118,8.2188954856469074,2.4155670358695880,0,-100.45773944012370,0,14.771508969402397,0,25.943411036022763,0,89.993113663070872,6.1116516480306258,17.354841671457606,2.8035269250866546,2.2108439847662891,1.6159160690083030,1.4417635580234580,2461.3465145269547,7.7193519432803646E-003,114.29706945534123,208.97149614499224,250.08550882072126,313.07738081749562,92.564820850477446,97.230000000000004,3.4936666666666838,0.21679805687265230,5.7376907204522354,0.57861297777758713
20211111103000,445.23712792662246,8.3056693740279588,2.6129159864063642,0,-56.444093079605601,1,-27.490277926755013,1,7.8499340995621525,1,87.897599795506395,5.6555365201857857,16.108227933577780,2.8509751345824759,2.1511854125302485,1.6073895960295257,1.5004325370812310,4934.2796677412807,3.8506127093313812E-003,118.50349417388809,216.66218210085108,259.28929568128359,324.59942980583980,92.478891608723970,97.633333333333340,3.5706666666666820,0.18623989207365413,5.3072047712537938,0.60000236138395624
20211111110000,439.47726060013724,8.5950677558626065,2.6320660949356851,0,-19.460030447383204,2,-3.6321549938435496,1,-11.475900056501127,1,92.554491566801289,5.8322911872015251,20.467416044696051,3.2264003813853566,2.2069728792992049,1.6455165767775559,1.5077951491530759,14513.656266310556,1.3091118909921583E-003,116.75808514858258,213.47101773293542,255.47028696764062,319.81848407641866,92.382604795243651,98.333333333333329,3.9406666666666865,0.13461826086334214,4.4786079486012795,0.67108489528894144
20211111113000,438.13256268791400,8.8169476098026660,2.5032068667348475,0,-66.851467857927418,0,-11.723117611001030,1,2.4947570037050539,1,91.637518686302798,6.6916387400785151,17.996409718408774,3.1234395886541053,2.4025201852485023,1.7363748858727124,1.4720887987510043,3928.6126227421391,4.8363129238072240E-003,109.72038167837148,200.60385122899064,240.07157498259897,300.54112394878393,92.274455154296859,98.793333333333337,4.2203333333333148,9.9397601735386157E-002,5.7822515080769676,0.77235998580812137
20211111120000,438.63200645212362,9.0074162148310659,2.5003266328445939,0,-202.39214682006406,0,11.662436975641523,2,3.6288770184548591,1,93.426036307708443,6.2230569705191137,16.590261769510743,3.0273152434369615,2.3407296159506918,1.6656282180120512,1.4727412541360239,1298.4470086183214,1.4632865164222540E-002,113.47327930676546,207.46534501900342,248.28303059927777,310.82089197409505,92.177735044487846,99.039999999999992,4.4746666666666783,8.0501383519099370E-002,5.9241468124390622,0.73685363255350678
20211111123000,440.51642379999510,9.3624796429144048,2.7242025396578144,0,-142.68200713258793,0,0.40957622484956741,2,2.3624794832396003,1,92.456597779472176,6.3024935695504620,17.927673081449125,3.0812387898185469,2.2601852697890363,1.7162159877617011,1.5395525152500138,2102.6373644566775,9.0362705054038688E-003,114.79235116534542,209.87702907287948,251.16920045906545,314.43403415317465,92.083298137420087,99.269999999999996,4.9800000000000182,6.3415156695032240E-002,6.3254195588108360,0.96023761266279073
20211111130000,443.49750533666815,9.6228579480608545,2.6621078857472060,0,39.276549605144908,1,-5.4218604413839167,0,1.5298222403720716,0,91.142233836432183,6.4968707225094926,17.918142929063389,3.0310177972990466,2.4080906264330419,1.7457953356959628,1.5234772577465983,-7398.7993033576058,-2.5679842391964493E-003,112.28688063280445,205.29622986055281,245.68715375435397,307.57116220220280,92.028346423828125,99.299999999999997,5.3609999999999900,6.2444035830590112E-002,7.4302945733247157,0.64894459941139959
20211111133000,446.61136035033047,9.8769022858765503,2.3268301459723637,0,-32.575224106015796,1,-20.746022533377943,1,-1.6701376385461246,2,92.091879510295740,5.8636315199295028,15.539079624780587,2.7132499801393153,2.1321832676801953,1.5928521029143810,1.4256650820407413,7308.1954199602660,2.5998210102738742E-003,114.58520537584688,209.49830050391509,250.71595909064126,313.86662974348491,91.980062484157997,99.383333333333340,5.7166666666666401,5.6385553956574769E-002,7.6234962045175507,0.62403033375070349
20211111140000,449.28718258823005,10.076129732286690,2.2538322307464447,0,-36.267877920587573,1,-5.3786135431502551,1,2.0591165907637983,0,90.756395551076054,5.7941905387506774,15.654819483118686,2.6698898730450766,2.1621027545034495,1.6151338912586042,1.4045388643204912,6272.5085471529865,3.0290911295168923E-003,111.97345641198558,204.72319042336767,245.00137190435780,306.71264470384227,91.891288809027799,99.400000000000006,5.9886666666666883,5.5904843811249522E-002,7.7481599981519480,0.64614296733784604
20211111143000,449.40989491080722,10.319727066517411,2.4139956801630560,0,-46.999192772373107,1,0.10996748746826458,2,2.6103379647927869,1,92.481104309582435,5.6869300594150278,17.757643885823722,2.8183107988239695,2.1967586254261682,1.6106970713375277,1.4553900832150359,5380.7557486654250,3.5311024858752454E-003,115.45887823359300,211.09565313154141,252.62758221635633,316.25975505542795,91.776729667785290,99.466666666666669,6.3066666666666720,5.0797043092521789E-002,7.6030194594344493,0.60725859956802186
20211111150000,447.30825410959676,10.528258479137460,2.5966684384611378,0,-108.95774531594570,0,-4.4914440440253793,1,-3.1992567129735283,2,91.829990004709543,6.1091594085963035,18.273433357207253,2.9600162397690082,2.4011226566270500,1.7468359658040553,1.5110037745632188,2595.6623551611792,7.3199042865574031E-003,111.49763077935089,203.85322941010946,243.96025076263084,305.40928457832911,91.687063185546876,99.446666666666673,6.5856666666666683,5.3725155703330078E-002,7.0613311903211411,0.63079611697241211
20211111153000,443.11581468232430,10.607925053047460,2.3590397718433480,0,48.087745876910560,0,-8.4726242187496350,0,3.2272574955382911,1,93.462041199339936,6.5848241927972220,17.802548688314253,3.0227629995629774,2.3813412234747804,1.6966475666277472,1.4411037782846083,-5099.2707036737756,-3.7260230146854974E-003,109.88484360612611,200.90454008536770,240.43142274667682,300.99161064832032,91.610354603949659,99.390000000000001,6.6913333333333185,5.9659365558638912E-002,6.0458758426242412,0.44621414399171139
20211111160000,438.92896558614791,10.762037924292487,2.6765247245692954,0,52.640412227166642,0,-11.508566972554709,0,1.3876893069736596,0,93.244111609435706,6.0654737941332773,17.022696795179588,3.0197697424897680,2.3379775046932973,1.7071115660126426,1.5360330493015664,-5639.2509826089217,-3.3692417767172888E-003,115.07098325291970,210.38645739411174,251.77885604977172,315.19725060837476,91.571740058357179,99.170000000000002,6.9273333333333085,8.2503095467118329E-002,6.1188393003433816,0.14039398869684649
20211111163000,436.80280016947427,10.910274319135478,2.7155104474998968,0,26.488795618862259,1,-10.049176428486509,0,5.1939417224533404,1,95.051721792789564,5.7783522865346963,17.491636984467839,3.0554184181968669,2.2326661008781383,1.7353211878806751,1.5483173519273197,-11475.210250749629,-1.6557430831176977E-003,114.29809418510855,208.97336967782772,250.08775096101837,313.08018771108556,91.539515783420157,98.469999999999999,7.2250000000000227,0.15522020520886373,6.8679681137932107,0.96555753024045987
20211111170000,469.00377406193013,11.065282040336498,1.6774222749381820,0,-143.89628059278022,0,163.85141752611761,1,64.233598134084701,1,109.64389761118665,4.6861918442193780,15.630540836252033,2.4968667850687889,2.1736560487316381,1.4536208782762325,1.2175592897383229,1027.1447456989958,1.8497879757998527E-002,108.66409641651151,198.67262488540510,237.76039029141759,297.64779497057725,91.526149125868059,98.189999999999998,7.4706666666666592,0.18673919073005210,8.8211769451565942,0.79658775052405473
20211111173000,476.16113975546193,11.130844427284956,1.7778179769573239,0,-51.248867535727918,0,-2.1818605477638391,2,3.1046918603415103,1,92.613240296136908,4.8574805106799355,15.875536479998086,2.4500955111565936,2.0102156220957297,1.4168167284137287,1.2544154740618965,3151.5392052589150,6.0288001394033282E-003,113.59444165102259,207.68686842705318,248.54813754084546,311.15277440620372,91.427702951388866,97.886666666666670,7.5866666666666447,0.21976921862800625,9.0310600784443409,0.53697120498707107
20211111180000,472.30151507877713,11.147997861682546,2.4453371214823059,0,-226.34883550295982,0,-22.551818102494288,1,-3.6922604542664921,2,97.464407729096180,5.2100138467472314,15.596437655661012,2.6034650370098622,2.6358191433021023,1.5141838173442530,1.4722114977611802,1152.5949014771702,1.6484542813480715E-002,122.43009419683301,223.84125926764028,267.88081748803756,335.35499560083025,91.327446235460087,97.383333333333340,7.6686666666666383,0.27363927800562465,9.1333774079216710,0.71145390638967265
20211111183000,473.35275825531431,11.290738883862117,2.8429646749053066,0,-330.26967635881607,0,-2.5268546168895618,0,0.80863998006879023,0,109.15908098352023,4.8180813960042004,14.924129609387396,2.6236826344622526,2.6911844044718856,1.4457242875348773,1.5885059983913226,991.82307129610490,1.9156642499927917E-002,135.01362736707463,246.84797121490487,295.41397569269213,369.82324246964987,91.262719024815922,97.379999999999995,7.8453333333333148,0.27730887430958545,9.4394955261179803,0.83513371591818519
20211111190000,473.74595522325086,11.442923173983560,1.9949266268001005,0,-275.22844088039318,0,1.5767037663778409,2,1.3425393778889683,0,111.18220051057746,4.5195185033737797,13.737720590978613,2.3184691969966149,2.3527161058814277,1.2264184924518078,1.3313636081875557,700.50165436680822,2.7123419169044399E-002,133.71535844052491,244.47432155553497,292.57332328900839,366.26708274431462,91.222601048628292,97.593333333333334,8.0033333333333303,0.25748486353988709,9.2860437655551777,0.91851517865312260
20211111193000,474.01547258791857,11.598978641432803,1.8771502542581617,0,-206.87003196508635,0,1.5474941753338369,2,0.46875540701964519,0,122.92165480465627,4.0059140110169889,12.649649674677361,2.3093283181915889,2.2421763615790566,1.1297902285618706,1.2920131426539154,851.66258832137760,2.2309304483420951E-002,139.40238162665787,254.87201372280276,305.01670520559378,381.84472031846565,91.204690240234370,97.790000000000006,8.1700000000000159,0.23913945119026039,9.3482280198556964,0.97976436440440984
20211111200000,474.67226328518234,11.664716116673635,1.3822889450272582,0,-189.56488367895710,0,-20.385183065597648,1,2.1608284215747688,1,152.60013906155939,3.6285131955025061,11.846795971609064,2.3979589980406417,1.9798781801140064,1.0105135973975481,1.1088480022642924,587.63388377775584,3.2333057239404925E-002,134.87106445173160,246.58732073754803,295.10204364235676,369.43274055783365,91.227763529947921,97.466666666666669,8.3056666666666388,0.27666479861953347,9.3478064757453012,1.1341018652698249
20211111203000,465.87936227853351,10.004793840554987,1.2831291079752596,0,161.61583639606908,1,51.071908940392824,2,23.478640721187926,2,199.12835107767188,3.9233295052149342,21.309607053354402,2.1213850844818891,1.8284693198406623,1.3431108158188956,1.0638237280492855,-608.94095245245239,-3.1201711633089033E-002,103.91091305241112,189.98228974574829,227.36027867181309,284.62808934497247,91.327224541980968,95.253333333333330,6.4136666666666429,0.45544237429654116,6.9161308045664782,1.0254757792845757
20211111210000,467.28239565984387,8.5390973127141336,1.2126399460376127,0,-269.50380568331201,0,24.311463768477978,1,-20.723132665197088,2,207.02826630605497,4.5427117742119378,26.243730695453838,2.3898963376685165,1.8241039517353643,1.3494534418403110,1.0289891095801567,330.71108447811974,5.7451960009090849E-002,100.79922621040365,184.29313377694140,220.55181200786035,276.10469700374881,91.460984581280712,95.183333333333337,4.1683333333333508,0.39532110169258888,4.6283328785113440,3.8498614562939744
20211111213000,480.54684503558451,8.2216446363687687,0.97490203946890952,0,60.204387968040599,0,-6.9510002154250170,0,-1.1274047287310629,1,202.99079877583603,3.8757598931766255,13.857046247377907,2.0707066531916714,1.5676690642544868,1.1521036232968407,0.92106046485665272,-1062.1934339173611,-1.7887514075405408E-002,104.68686124753044,191.40097052241026,229.05807722535133,286.75353166589690,91.524046962456609,96.450000000000003,3.4523333333333426,0.27703619710868910,3.6195770344205016,0.31084789568248400
20211111220000,480.25920357228534,8.1850164374682635,1.0671695791467550,0,84.603848714435216,0,-9.5075580434969797,1,1.5002529143665824,0,203.04037916900634,4.1377266796113297,12.180034945829497,2.0168841600494734,1.7386698451891722,1.3137153673022270,0.96344315996908203,-865.39507960821595,-2.1955290072369873E-002,97.704542144898440,178.63506430633814,213.78054794265489,267.62787790153578,91.571707804253478,95.916666666666671,3.4750000000000227,0.31916709106592750,3.6226220118205106,0.33801369274473270
20211111223000,471.18182779444658,8.0073894289897041,0.85926183001185341,0,70.835257030166915,0,26.625513460387779,2,9.8294803641431976,1,207.70369768608452,3.7901066667859529,11.346287636730008,1.9164995454743308,1.7010325012494487,1.1626410585059528,0.86417959048849624,-746.19606888033093,-2.5462476676551712E-002,98.760113250404956,180.56498494434109,216.09017003773576,270.51925069484906,91.624096771050347,94.136666666666670,3.4376666666666438,0.45709124677366392,3.2074986682468420,0.35138209276252741